Location: La Brionne
(46.1728°N, 1.7849°E)
Time: 17:32:10
(UTC+00:00)

USA 215 - Pass Details

Date: 31 October 2021
Orbit: 1099 x 1109 km, 123.0° (Epoch: 20 November)

Event Time Altitude Azimuth Distance (km) Brightness Sun altitude
Exits shadow 21:07:11 25° 315° (NW) 2,052 5.0 -45.5°
Drops below altitude 10° 21:10:15 10° 294° (WNW) 2,963 6.1 -45.9°
Sets 21:12:57 0° 286° (WNW) 3,922 6.8 -46.3°
